EHI
0 0 0 0 0 0 0 0 0 0 0 0 0 0 0 0 0 0 0 0 0 0 0 0 0 0 0 0 0 0 0 0 0 0 0 0 0 0
0 0 0 0 0 0 0 0 0 0 0 0 0 0 0 0 0 0 0 0 0 0 0 0 0 0 0 0 0 0 0 0 0 0 0 0 0 0
0 0 0 0 0 0 0 0 0 0 0 0 0 0 0 0 0 0 0 0 0 0 0 0 0 0 0 0 0 0 0 0 0 0 0 0 0 0
0 0 0 0 0 0 0 0 0 0 0 0 0 0 0 0 0 0 0 0 0 0 0 0 0 0 0 0 0 0 0 0 0 0 0 0 0 0
0 0 0 0 0 0 0 0 0 0 0 0 0 0 0 0 0 0 0 0 0 0 0 0 0 0 0 0 0 0 0 0 0 0 0 0 0 0
0 0 0 0 0 0 0 0 0 0 0 0 0 0 0 0 0 0 0 0 0 0 0 0 0 0 0 0 0 0 0 0 0 0 0 0 0 0
0 0 0 0 0 0 0 0 0 0 0 0 0 0 0 0 0 0 0 0 0 0 0 0 0 0 0 0 0 0 0 0 0 0 0 0 0 0
0 0 0 0 0 0 0 0 0 0 0 0 0 0 0 0 0 0 0 0 0 0 0 0 0 0 0 0 0 0 0 0 0 0 0 0 0 0
0 0 0 0 0 0 0 0 0 0 0 0 0 0 0 0 0 0 0 0 0 0 0 0 0 0 0 0 0 0 0 0 0 0 0 0 0 0
0 0 0 0 0 0 0 0 0 0 0 0 0 0 0 0 0 0 0 0 0 0 0 0 0 0 0 0 0 0 0 0 0 0 0 0 0 0
0 0 0 0 0 0 0 0 0 0 0 0 0 0 0 0 0 0 0 0 0 0 0 0 0 0 0 0 0 0 0 0 0 0 0 0 0 0
0 0 0 0 0 0 0 0 0 0 0 0 0 0 0 0 0 0 0 0 0 0 0 0 0 0 0 0 0 0 0 0 0 0 0 0 0 0
0 0 0 0 0 0 0 0 0 0 0 0 0 0 0 0 0 0 0 0 0 0 0 0 0 0 0 0 0 0 0 0 0 0 0 0 0 0
0 0 0 0 0 0 0 0 0 0 0 0 0 0 0 0 0 0 0 0 0 0 0 0 0 0 0 0 0 0 0 0 0 0 0 0 0 0
0 0 0 0 0 0 0 0 0 0 0 0 0 0 0 0 0 0 0 0 0 0 0 0 0 0 0 0 0 0 0 0 0 0 0 0 0 0
0 0 0 0 0 0 0 0 0 0 0 0 0 0 0 0 0 0 0 0 0 0 0 0 0 0 0 0 0 0 0 0 0 0 0 0 0 0
0 0 0 0 0 0 0 0 0 0 0 0 0 0 0 0 0 0 0 0 0 0 0 0 0 0 0 0 0 0 0 0 0 0 0 0 0 0
0 0 0 0 0 0 0 0 0 0 0 0 0 0 0 0 0 0 0 0 0 0 0 0 0 0 0 0 0 0 0 0 0 0 0 0 0 0
0 0 0 0 0 0 0 0 0 0 0 0 0 0 0 0 0 0 0 0 0 0 0 0 0 0 0 0 0 0 0 0 0 0 0 0 0 0
0 0 0 0 0 0 0 0 0 0 0 0 0 0 0 0 0 0 0 0 0 0 0 0 0 0 0 0 0 0 0 0 0 0 0 0 0 0
0 0 0 0 0 0 0 0 0 0 0 0 0 0 0 0 0 0 0 0 0 0 0 0 0 0 0 0 0 0 0 0 0 0 0 0 0 0
0 0 0 0 0 0 0 0 0 0 0 0 0 0 0 0 0 0 0 0 0 0 0 0 0 0 0 0 0 0 0 0 0 0 0 0 0 0
0 0 0 0 0 0 0 0 0 0 0 0 0 0 0 0 0 0 0 0 0 0 0 0 0 0 0 0 0 0 0 0 0 0 0 0 0 0
Wind_Speed
15 16 15 13 12 12 12 11 12 13 13 8 8 9 11 11 17 13 12 23 29 29 29 29 29 28 27 26 25 24 23 23 22 22 22 22 22 22
12 14 15 13 12 12 12 12 13 14 16 5 8 7 10 11 18 14 13 25 29 29 29 29 29 29 28 27 26 25 24 24 24 24 23 23 23 23
13 14 17 14 13 12 11 12 13 13 19 14 6 7 11 11 11 10 11 13 13 26 28 29 29 28 28 27 27 26 25 25 25 24 24 24 24 24
14 14 16 13 16 13 12 15 14 14 16 21 8 7 12 11 11 10 10 11 10 21 27 28 28 28 28 27 27 26 26 25 25 25 25 24 24 24
13 14 15 14 16 13 14 15 13 13 14 17 14 7 8 8 9 9 10 9 10 16 23 26 28 28 28 28 28 27 26 26 25 25 25 24 24 24
13 14 14 14 16 15 14 15 13 14 13 15 14 8 8 6 8 9 10 9 10 10 15 18 22 27 28 28 28 27 26 26 26 26 25 25 25 25
14 14 15 18 22 18 14 12 13 13 13 13 14 11 10 8 9 8 11 8 9 9 8 10 9 9 10 20 25 26 25 25 25 25 25 25 25 25
13 13 13 17 21 27 28 26 22 17 16 15 14 14 13 12 10 10 10 9 9 7 10 11 9 10 8 7 18 24 24 25 25 25 25 25 25 25
11 11 10 11 18 13 19 26 25 28 27 18 18 17 14 13 13 13 12 11 11 7 8 10 9 11 8 12 24 26 26 26 25 25 25 25 25 26
11 11 12 12 12 14 12 13 14 15 17 15 14 14 13 11 13 15 14 12 8 7 9 7 7 9 9 9 20 25 25 26 26 26 26 26 26 26
11 11 12 12 19 23 15 13 14 13 19 26 25 21 23 24 18 11 12 11 10 9 10 8 6 7 7 8 13 23 24 25 25 25 25 26 26 26
9 10 17 18 20 22 14 12 14 12 10 11 14 17 16 17 24 17 13 12 7 7 9 9 6 6 5 7 9 9 12 20 24 24 25 25 25 15
10 8 8 19 21 22 19 12 15 14 10 10 9 8 7 8 10 10 11 11 10 7 7 10 8 7 6 4 5 7 8 8 9 13 19 24 25 21
10 8 10 19 21 21 17 16 20 17 7 7 8 8 8 8 8 9 10 11 10 8 8 10 7 8 7 6 5 5 6 7 8 9 9 16 21 25
10 17 20 22 20 14 16 19 15 7 5 7 7 7 7 7 6 6 7 8 9 8 8 9 8 7 8 7 6 5 5 6 9 9 9 10 10 11
12 15 21 20 16 14 13 10 5 5 6 6 6 5 5 6 7 7 6 6 6 6 8 11 11 10 8 8 8 7 7 6 6 8 9 10 10 11
12 8 7 6 6 5 5 6 5 5 6 5 5 5 6 7 7 6 6 6 6 6 6 6 8 8 9 7 8 9 9 9 9 9 10 12 12 12
15 8 7 6 6 6 6 5 5 5 5 5 5 5 6 7 6 6 5 6 7 6 6 5 5 4 3 7 12 11 9 10 9 9 10 12 14 12
9 7 7 6 6 5 5 5 5 5 4 5 5 5 5 5 5 6 6 6 6 6 6 5 6 7 7 8 7 14 11 9 9 10 11 13 15 13
5 6 6 6 5 5 5 4 4 4 4 4 4 4 5 5 5 6 6 6 6 6 5 5 6 8 9 8 6 6 14 11 10 11 11 12 14 19
6 6 6 5 5 5 4 4 4 4 3 3 4 4 4 4 5 5 6 9 7 6 7 7 8 12 5 4 6 7 8 15 17 13 12 12 14 14
7 6 5 5 5 4 4 3 3 3 3 3 3 3 3 4 5 6 5 5 5 6 6 5 4 4 5 7 10 10 10 10 15 24 26 24 16 14
6 6 5 5 4 4 3 3 3 2 2 2 2 3 3 3 3 4 5 5 4 5 5 4 3 4 6 8 9 10 13 13 10 11 13 21 29 33
Wind_Direction
239 237 237 238 232 231 229 225 238 262 264 215 206 213 216 219 228 228 226 237 241 240 238 237 237 238 239 241 243 244 246 248 251 252 253 254 255 258
241 240 240 239 237 232 230 229 226 240 261 231 205 197 209 219 227 228 225 234 241 243 242 240 238 238 238 239 241 242 244 246 247 249 250 252 253 256
246 243 243 238 238 234 230 230 230 229 250 257 203 199 204 216 226 225 222 229 236 241 243 241 240 239 239 239 240 241 243 245 247 248 250 252 254 256
250 246 247 242 239 236 232 232 232 228 239 256 239 205 213 213 218 223 225 225 224 237 242 243 242 241 240 240 241 241 243 245 247 248 250 252 255 257
253 249 249 244 245 240 235 235 233 232 233 247 251 217 218 213 217 226 228 227 222 232 240 244 245 244 243 243 242 241 242 244 246 247 249 252 255 258
255 251 250 245 245 243 240 238 234 233 233 240 248 233 221 198 207 219 229 225 230 229 236 239 243 245 246 245 243 242 243 244 244 246 248 250 253 255
258 253 250 249 248 249 244 238 231 233 233 237 243 238 225 204 212 209 226 224 226 220 225 232 236 238 239 246 245 244 244 245 245 246 248 250 252 254
262 258 254 259 261 261 258 252 236 229 230 232 237 236 230 219 212 211 218 220 229 205 217 228 222 232 229 227 242 246 247 247 246 246 248 250 252 254
266 265 264 260 265 255 259 261 257 249 236 227 234 234 229 216 210 213 213 212 221 195 196 225 217 228 225 232 237 240 243 245 246 247 249 250 252 254
269 265 266 265 259 260 252 250 249 252 252 244 236 234 228 217 208 212 214 220 224 205 193 218 208 221 222 222 236 238 239 241 243 245 247 250 253 255
270 265 266 265 268 271 264 255 252 249 255 252 247 241 233 227 214 209 209 213 222 214 200 212 210 213 219 221 229 236 239 242 243 245 247 250 253 255
273 265 270 272 272 272 264 257 257 251 241 248 251 252 243 236 228 212 205 211 209 209 192 198 202 193 223 220 219 225 237 243 244 246 249 252 254 256
279 274 266 277 279 279 274 261 260 259 241 236 236 236 228 223 226 219 207 208 208 206 185 184 195 195 206 210 211 214 217 226 238 247 251 253 255 255
285 280 274 280 280 279 277 271 271 269 251 237 233 228 222 220 217 214 211 211 212 207 185 180 191 193 200 213 220 210 210 217 224 235 236 248 254 255
281 283 285 286 286 281 279 280 277 266 251 243 234 227 217 211 201 203 206 209 214 212 198 192 195 197 205 218 223 214 216 223 225 232 236 237 240 244
287 284 286 285 283 279 277 279 266 247 246 244 236 221 203 198 201 198 200 197 205 211 207 204 204 205 214 222 228 234 226 227 222 227 237 243 242 241
293 282 273 270 263 261 260 257 250 249 252 239 231 218 203 201 202 196 196 194 201 205 204 203 207 213 221 220 231 236 237 240 240 240 244 250 247 243
304 292 287 277 272 267 264 258 246 242 236 232 227 215 205 203 199 192 191 196 204 208 206 194 185 192 220 241 227 237 238 242 243 240 242 252 256 248
308 297 291 287 279 272 263 256 251 242 232 228 223 214 207 202 194 192 192 198 208 210 206 192 188 196 222 242 234 220 230 241 244 244 243 247 256 257
297 294 293 290 285 280 272 263 256 245 234 228 220 208 201 199 196 195 195 199 205 206 207 203 203 208 222 238 244 235 233 239 245 251 253 255 258 263
304 298 293 290 287 281 277 270 258 247 236 226 217 206 198 197 201 199 199 210 207 206 216 221 224 226 229 234 251 248 239 243 246 251 257 261 265 264
304 302 299 292 288 284 281 275 265 251 233 221 210 201 196 196 201 200 200 205 210 211 222 231 219 215 213 234 252 261 262 255 256 260 259 256 259 261
308 305 302 300 295 289 283 274 262 252 232 214 208 204 199 201 203 201 204 207 210 216 222 230 227 221 231 240 253 262 266 268 267 265 261 259 260 262